Le nostre stazioni meteo in Italia

Pubblicità
Il mio iltempo24.it
Achnagart, Gran Bretagna (99191): Temperatura & dewpoint: 22.03.2017 11:00:00 - 28.03.2017 11:00:00 (BST)Achnagart, Gran Bretagna (99191): precipitazioni: 22.03.2017 11:00:00 - 28.03.2017 11:00:00 (BST)
Data & Tempo tt [°C] td [°C] rr [mm]
28.03.2017 11:00:00 - - -
28.03.2017 10:00:00 6,2 3,8 0,0
28.03.2017 09:00:00 4,7 3,4 0,0
28.03.2017 08:00:00 4,4 3,4 0,0
28.03.2017 07:00:00 4,0 3,3 0,0
28.03.2017 06:00:00 4,1 3,1 0,0
28.03.2017 05:00:00 5,1 3,5 0,0
28.03.2017 04:00:00 6,0 4,2 0,0
28.03.2017 03:00:00 5,0 4,5 0,0
28.03.2017 02:00:00 3,5 3,0 0,0
28.03.2017 01:00:00 2,9 2,8 0,0
28.03.2017 00:00:00 2,4 2,0 0,0
27.03.2017 23:00:00 3,3 2,6 0,0
27.03.2017 22:00:00 4,9 3,8 0,0
27.03.2017 21:00:00 6,1 4,5 0,0
27.03.2017 20:00:00 8,0 4,5 0,0
27.03.2017 19:00:00 10,3 5,1 0,0
27.03.2017 18:00:00 11,9 5,3 0,0
27.03.2017 17:00:00 13,6 5,2 0,0
27.03.2017 16:00:00 16,2 6,6 0,0
27.03.2017 15:00:00 16,1 6,6 0,0
27.03.2017 14:00:00 16,9 6,4 0,0
27.03.2017 13:00:00 17,0 6,1 0,0
27.03.2017 12:00:00 15,6 5,5 0,0
27.03.2017 11:00:00 11,5 6,5 0,0
27.03.2017 10:00:00 6,1 6,0 0,0
27.03.2017 09:00:00 1,6 1,5 0,0
27.03.2017 08:00:00 -0,1 -0,3 0,0
27.03.2017 07:00:00 0,6 0,5 0,0
27.03.2017 06:00:00 1,7 1,6 0,0
27.03.2017 05:00:00 1,2 0,9 0,0
27.03.2017 04:00:00 1,0 0,7 0,0
27.03.2017 03:00:00 1,5 1,2 0,0
27.03.2017 02:00:00 2,1 1,8 0,0
27.03.2017 01:00:00 2,0 1,4 0,0
27.03.2017 00:00:00 2,3 1,4 0,0
26.03.2017 23:00:00 3,1 2,0 0,0
26.03.2017 22:00:00 3,6 1,7 0,0
26.03.2017 21:00:00 5,5 2,4 0,0
26.03.2017 20:00:00 8,5 2,6 0,0
26.03.2017 19:00:00 10,8 3,1 0,0
26.03.2017 18:00:00 12,8 3,1 0,0
26.03.2017 17:00:00 15,1 3,1 0,0
26.03.2017 16:00:00 18,4 1,4 0,0
26.03.2017 15:00:00 18,2 0,1 0,0
26.03.2017 14:00:00 18,5 -0,5 0,0
26.03.2017 13:00:00 16,1 -1,2 0,0
26.03.2017 12:00:00 13,2 0,9 0,0
26.03.2017 11:00:00 8,6 1,0 0,2
26.03.2017 10:00:00 4,0 1,1 0,0
26.03.2017 09:00:00 -1,6 -2,0 0,0
26.03.2017 08:00:00 -2,4 -3,0 0,0
26.03.2017 07:00:00 -2,3 -2,8 0,0
26.03.2017 06:00:00 -2,3 -3,1 0,0
26.03.2017 05:00:00 -1,8 -2,4 0,0
26.03.2017 04:00:00 -1,8 -2,4 0,0
26.03.2017 03:00:00 -1,2 -2,4 0,0
26.03.2017 02:00:00 -0,9 -1,9 0,0
26.03.2017 01:00:00 0,1 -1,0 0,0
26.03.2017 00:00:00 0,7 -0,6 0,0
25.03.2017 23:00:00 0,9 -0,9 0,0
25.03.2017 22:00:00 2,9 -0,1 0,0
25.03.2017 21:00:00 4,5 -0,3 0,0
25.03.2017 20:00:00 6,5 0,6 0,0
25.03.2017 19:00:00 8,4 0,5 0,0
25.03.2017 18:00:00 9,7 0,8 0,0
25.03.2017 17:00:00 12,2 -3,8 0,0
25.03.2017 16:00:00 15,0 -0,4 0,0
25.03.2017 15:00:00 15,0 -1,8 0,0
25.03.2017 14:00:00 14,6 0,2 0,0
25.03.2017 13:00:00 14,7 2,2 0,0
25.03.2017 12:00:00 13,0 2,1 0,0
25.03.2017 11:00:00 9,5 2,9 0,0
25.03.2017 10:00:00 4,4 1,6 0,0
25.03.2017 09:00:00 0,9 -0,1 0,0
25.03.2017 08:00:00 -0,1 -1,1 0,0
25.03.2017 07:00:00 -1,1 -2,4 0,0
25.03.2017 06:00:00 -1,0 -2,2 0,0
25.03.2017 05:00:00 0,4 -1,0 0,0
25.03.2017 04:00:00 -0,2 -1,1 0,0
25.03.2017 03:00:00 -0,7 -1,7 0,0
25.03.2017 02:00:00 0,6 0,0 0,0
25.03.2017 01:00:00 0,4 -0,5 0,0
25.03.2017 00:00:00 1,5 0,3 0,0
24.03.2017 23:00:00 2,2 0,8 0,0
24.03.2017 22:00:00 3,3 1,4 0,0
24.03.2017 21:00:00 5,4 2,3 0,0
24.03.2017 20:00:00 7,2 2,5 0,0
24.03.2017 19:00:00 9,1 1,9 0,0
24.03.2017 18:00:00 9,8 3,0 0,0
24.03.2017 17:00:00 10,3 3,1 0,0
24.03.2017 16:00:00 10,9 3,1 0,0
24.03.2017 15:00:00 10,6 3,9 0,0
24.03.2017 14:00:00 10,7 3,2 0,0
24.03.2017 13:00:00 10,5 4,2 0,0
24.03.2017 12:00:00 9,1 3,5 0,0
24.03.2017 11:00:00 8,5 3,0 0,0
24.03.2017 10:00:00 7,6 2,9 0,0
24.03.2017 09:00:00 5,4 3,0 0,0
24.03.2017 08:00:00 4,3 2,0 0,0
24.03.2017 07:00:00 2,0 0,6 0,0
24.03.2017 06:00:00 1,0 -0,1 0,0
24.03.2017 05:00:00 2,2 0,7 0,0
24.03.2017 04:00:00 2,4 0,8 0,0
24.03.2017 03:00:00 1,3 0,0 0,0
24.03.2017 02:00:00 0,7 -0,3 0,0
24.03.2017 01:00:00 0,2 -0,8 0,0
24.03.2017 00:00:00 1,3 0,1 0,0
23.03.2017 23:00:00 1,6 -0,3 0,0
23.03.2017 22:00:00 2,7 -0,5 0,0
23.03.2017 21:00:00 3,4 0,2 0,0
23.03.2017 20:00:00 4,3 0,0 0,0
23.03.2017 19:00:00 5,9 0,2 0,0
23.03.2017 18:00:00 6,3 -0,1 0,0
23.03.2017 17:00:00 7,1 -0,1 0,0
23.03.2017 16:00:00 8,8 -0,4 0,0
23.03.2017 15:00:00 8,8 -0,4 0,0
23.03.2017 14:00:00 8,2 -1,6 0,0
23.03.2017 13:00:00 7,5 -1,7 0,0
23.03.2017 12:00:00 6,7 -1,5 0,0
23.03.2017 11:00:00 5,9 -1,2 0,0
23.03.2017 10:00:00 4,7 -2,3 0,0
23.03.2017 09:00:00 3,3 -1,9 0,0
23.03.2017 08:00:00 2,4 -2,0 0,0
23.03.2017 07:00:00 1,5 -3,1 0,0
23.03.2017 06:00:00 1,8 -3,4 0,0
23.03.2017 05:00:00 3,8 -4,0 0,0
23.03.2017 04:00:00 4,0 -3,3 0,0
23.03.2017 03:00:00 4,6 -2,2 0,0
23.03.2017 02:00:00 4,5 -2,0 0,0
23.03.2017 01:00:00 4,7 -2,0 0,0
23.03.2017 00:00:00 4,5 -1,2 0,0
22.03.2017 23:00:00 4,7 -2,1 0,0
22.03.2017 22:00:00 4,8 -2,0 0,0
22.03.2017 21:00:00 4,8 -2,0 0,0
22.03.2017 20:00:00 5,1 -2,2 0,0
22.03.2017 19:00:00 5,1 -3,5 0,0
22.03.2017 18:00:00 5,9 -1,9 0,0
22.03.2017 17:00:00 6,3 -0,6 0,0
22.03.2017 16:00:00 6,7 -1,2 0,0
22.03.2017 15:00:00 6,9 0,0 0,0
22.03.2017 14:00:00 5,9 -0,6 0,0
22.03.2017 13:00:00 5,1 0,0 0,0
22.03.2017 12:00:00 4,9 0,3 0,0
22.03.2017 11:00:00 - - -

tt = Temperatura
td = dewpoint
rr = precipitazioni

Stazioni seguenti

WeatherPro
AMSI
MeteoEarth